WetterOnline ( https://www.wetteronline.de )

Wetter aktuell Kassel

Aktuelles Wetter: Schauenburg-Elgershausen (317m)

6-stündlich | Neueste Meldungen
Ortszeit Temperatur Wetter
Mo, 20.05. 2:00 10.5° C bedeckt
So, 19.05. 20:00 14.9° C bedeckt
So, 19.05. 14:00 12.8° C leichter Regen
So, 19.05. 8:00 12.6° C leichter Regen
So, 19.05. 2:00 12.4° C Regen
Sa, 18.05. 20:00 14.1° C leichter Regen
Sa, 18.05. 14:00 15.8° C bewölkt
Sa, 18.05. 8:00 13.0° C bedeckt
Ortszeit Temperatur Wetter
Mo, 20.05. 3:30 10.8° C bewölkt
Mo, 20.05. 3:20 10.8° C bewölkt
Mo, 20.05. 3:10 11.1° C bewölkt
Mo, 20.05. 3:00 11.1° C bedeckt
Mo, 20.05. 2:50 11.1° C bedeckt
Mo, 20.05. 2:40 11.1° C bedeckt
Mo, 20.05. 2:30 11.2° C bedeckt
Mo, 20.05. 2:00 10.5° C bedeckt
Mo, 20.05. 1:30 10.2° C bewölkt
Mo, 20.05. 1:00 10.1° C bewölkt
Mo, 20.05. 0:30 11.0° C leicht bewölkt
Ortszeit Relative Feuchte Sichtweite
Mo, 20.05. 2:00 97% 9 km
So, 19.05. 20:00 75% >70 km
So, 19.05. 14:00 86% 19 km
So, 19.05. 8:00 94% 16 km
So, 19.05. 2:00 96% 2.9 km
Sa, 18.05. 20:00 92% 30 km
Sa, 18.05. 14:00 70% 55 km
Sa, 18.05. 8:00 80% 29 km
Ortszeit Relative Feuchte Sichtweite
Mo, 20.05. 3:30 95% 8 km
Mo, 20.05. 3:20 95% -
Mo, 20.05. 3:10 95% -
Mo, 20.05. 3:00 95% 10 km
Mo, 20.05. 2:50 95% -
Mo, 20.05. 2:40 96% -
Mo, 20.05. 2:30 97% 9 km
Mo, 20.05. 2:00 97% 9 km
Mo, 20.05. 1:30 96% 10 km
Mo, 20.05. 1:00 96% 10 km
Mo, 20.05. 0:30 94% 18 km
Ortszeit Niederschlagsmenge Niederschlagsart
Mo, 20.05. 2:00 0.0 l/m2 in 6 Std. -
So, 19.05. 20:00 4 l/m2 in 12 Std. Regen
So, 19.05. 14:00 3 l/m2 in 6 Std. Regen
So, 19.05. 8:00 8 l/m2 in 12 Std. Regen
So, 19.05. 2:00 4 l/m2 in 6 Std. Regen
Sa, 18.05. 20:00 1 l/m2 in 12 Std. Regen
Sa, 18.05. 14:00 0.0 l/m2 in 6 Std. -
Sa, 18.05. 8:00 0.0 l/m2 in 12 Std. -
Ortszeit Niederschlagsmenge Niederschlagsart
Mo, 20.05. 3:30 0.0 l/m2 in 30 Min -
Mo, 20.05. 3:20 keine Meldung -
Mo, 20.05. 3:10 keine Meldung -
Mo, 20.05. 3:00 0.0 l/m2 in 1 Std. -
Mo, 20.05. 2:50 keine Meldung -
Mo, 20.05. 2:40 keine Meldung -
Mo, 20.05. 2:30 0.0 l/m2 in 30 Min -
Mo, 20.05. 2:00 0.0 l/m2 in 1 Std. -
Mo, 20.05. 1:30 0.0 l/m2 in 30 Min -
Mo, 20.05. 1:00 0.0 l/m2 in 1 Std. -
Mo, 20.05. 0:30 0.0 l/m2 in 30 Min -
Ortszeit Stärke Spitze Richtung
km/h Bft. km/h Grad Sektor
Mo, 20.05. 2:00 4 1 11 360° N
So, 19.05. 20:00 7 2 22 310° NW
So, 19.05. 14:00 7 2 22 330° NW
So, 19.05. 8:00 4 1 7 280° W
So, 19.05. 2:00 2 1 7 50° NO
Sa, 18.05. 20:00 0 0 18 - -
Sa, 18.05. 14:00 7 2 18 290° W
Sa, 18.05. 8:00 4 1 18 10° N
Ortszeit Stärke Spitze Richtung
km/h Bft. km/h Grad Sektor
Mo, 20.05. 3:30 4 1 11 360° N
Mo, 20.05. 3:20 4 1 - 360° N
Mo, 20.05. 3:10 7 2 - 340° N
Mo, 20.05. 3:00 4 1 7 320° NW
Mo, 20.05. 2:50 4 1 - 320° NW
Mo, 20.05. 2:40 4 1 - 340° N
Mo, 20.05. 2:30 6 1 7 320° NW
Mo, 20.05. 2:00 4 1 7 360° N
Mo, 20.05. 1:30 0 0 4 - -
Mo, 20.05. 1:00 4 1 11 10° N
Mo, 20.05. 0:30 6 1 9 340° N
Ortszeit Untergrenze Bedeckung Gattung
total tief tief mittel hoch
Mo, 20.05. 2:00 1500 m 8/8 8/8 - - -
So, 19.05. 20:00 840 m 8/8 8/8 - - -
So, 19.05. 14:00 1050 m 8/8 8/8 - - -
So, 19.05. 8:00 1800 m 7/8 7/8 - - -
So, 19.05. 2:00 690 m 7/8 7/8 - - -
Sa, 18.05. 20:00 1800 m 7/8 7/8 - - -
Sa, 18.05. 14:00 450 m 8/8 7/8 - - -
Sa, 18.05. 8:00 1500 m 8/8 8/8 - - -
Ortszeit Bedeckungsgrad in Achtel und Wolkenuntergrenze
Mo, 20.05. 3:30 3(360m) 4(1800m) 7(2700m)
Mo, 20.05. 3:20 3(360m) 4(1800m) 7(2700m)
Mo, 20.05. 3:10 7
Mo, 20.05. 3:00 3(330m) 7(1800m) 8(2700m)
Mo, 20.05. 2:50 3(330m) 7(1800m) 8(2700m)
Mo, 20.05. 2:40 8
Mo, 20.05. 2:30 3(390m) 8(1500m) 8(1800m)
Mo, 20.05. 2:00 7(1500m) 8(2700m)
Mo, 20.05. 1:30 7(2700m)
Mo, 20.05. 1:00 7(2700m)
Mo, 20.05. 0:30 3(3300m)
Ortszeit Luftdruck NN (hPa) Tendenz (hPa in 3 Std.)
Mo, 20.05. 2:00 1011 0,0
So, 19.05. 20:00 1010 + 0,5
So, 19.05. 14:00 1010 - 0,3
So, 19.05. 8:00 1010 + 0,6
So, 19.05. 2:00 1010 - 0,4
Sa, 18.05. 20:00 1010 - 0,5
Sa, 18.05. 14:00 1010 + 0,3
Sa, 18.05. 8:00 1009 + 0,6
Ortszeit Luftdruck NN (hPa) Tendenz (hPa in 3 Std.)
Mo, 20.05. 3:30 1011 - 0,1
Mo, 20.05. 3:20 1011 keine Meldung
Mo, 20.05. 3:10 1011 keine Meldung
Mo, 20.05. 3:00 1011 0,0
Mo, 20.05. 2:50 1011 keine Meldung
Mo, 20.05. 2:40 1011 keine Meldung
Mo, 20.05. 2:30 1011 + 0,1
Mo, 20.05. 2:00 1011 0,0
Mo, 20.05. 1:30 1011 + 0,2
Mo, 20.05. 1:00 1011 + 0,3
Mo, 20.05. 0:30 1011 + 0,8
Ortszeit Schneehöhe (cm)
Mo, 20.05. 2:00 0
So, 19.05. 20:00 0
So, 19.05. 14:00 0
So, 19.05. 8:00 0
So, 19.05. 2:00 0
Sa, 18.05. 20:00 0
Sa, 18.05. 14:00 0
Sa, 18.05. 8:00 0
Ortszeit Schneehöhe (cm)
Mo, 20.05. 3:30 0
Mo, 20.05. 3:20 0
Mo, 20.05. 3:10 -
Mo, 20.05. 3:00 0
Mo, 20.05. 2:50 0
Mo, 20.05. 2:40 -
Mo, 20.05. 2:30 0
Mo, 20.05. 2:00 0
Mo, 20.05. 1:30 0
Mo, 20.05. 1:00 0
Mo, 20.05. 0:30 0
Link zu dieser Seite / Seite empfehlen

Das Wetter in ...